Voltar ao catálogo

NIMBUS 2 DEB

AtivoSSO
NORAD 42435·DEBRIS·🇺🇸 United States

Lançado May 15, 1966 de Vandenberg Space Force Base

Loading…

Próximas Passagens (próximas 24 horas)

TLE

AtualizadoSource: Space-Track

Época: Sep 13, 2026, 09:50 UTC

1 42435U 66040BN  26256.40974061  .00001232  00000-0  21910-2 0  9999
2 42435 100.2152  63.1529 0050469 321.1928  38.5581 13.44030849487451

Acompanhe NIMBUS 2 DEB em tempo real com AllMySat

Download on the App Store